When you browse on this site, cookies collect data to enhance your experience and personalize the content and advertising you see.
Visit our Privacy Policy to learn more. By continuing to use the site, you agree to this use of cookies and data.
  • En España
  • Lista de países
  • Para 7 días
  • Temperatura del agua
  • Mapa Satelital
  • El tiempo en el mapa
  • Informadores
  • user-avatar
    Iniciar sesión

    Tiempo cada hora Sliven

    Hoy, 18 Noviembre, Domingo

    Tiempo Temperatura Precipitaciones Viento Presión Humedad
    00:00 +1°C° 0 mm 2 mps 741 mmHg 80%
    01:00 +1°C° 0 mm 2 mps 741 mmHg 79%
    02:00 +2°C° 0 mm 2 mps 740 mmHg 79%
    03:00 +2°C° 0 mm 2 mps 740 mmHg 79%
    04:00 +2°C° 0 mm 2 mps 740 mmHg 79%
    05:00 +2°C° 0 mm 2 mps 740 mmHg 80%
    06:00 +2°C° 0 mm 2 mps 739 mmHg 80%
    07:00 +2°C° 0 mm 2 mps 739 mmHg 79%
    08:00 +2°C° 0 mm 2 mps 739 mmHg 79%
    09:00 +2°C° 0 mm 3 mps 739 mmHg 78%
    10:00 +3°C° 0 mm 3 mps 738 mmHg 76%
    11:00 +3°C° 0 mm 3 mps 738 mmHg 74%
    12:00 +4°C° 0 mm 3 mps 737 mmHg 73%
    13:00 +5°C° 0 mm 4 mps 737 mmHg 72%
    14:00 +6°C° 0 mm 4 mps 736 mmHg 71%
    15:00 +5°C° 0.4 mm 4 mps 735 mmHg 74%
    16:00 +5°C° 0.4 mm 4 mps 735 mmHg 78%
    17:00 +5°C° 0.4 mm 4 mps 734 mmHg 82%
    18:00 +4°C° 1.1 mm 4 mps 734 mmHg 84%
    19:00 +4°C° 1.1 mm 4 mps 733 mmHg 85%
    20:00 +3°C° 1.1 mm 5 mps 732 mmHg 87%
    21:00 +5°C° 1.9 mm 5 mps 732 mmHg 88%
    22:00 +5°C° 1.9 mm 5 mps 731 mmHg 89%
    23:00 +5°C° 1.9 mm 5 mps 731 mmHg 90%

    Mañana, 19 Noviembre, Lunes

    Tiempo Temperatura Precipitaciones Viento Presión Humedad
    00:00 +5°C° 2 mm 5 mps 730 mmHg 90%
    01:00 +5°C° 2 mm 5 mps 729 mmHg 91%
    02:00 +5°C° 2 mm 5 mps 729 mmHg 91%
    03:00 +5°C° 2.5 mm 5 mps 728 mmHg 91%
    04:00 +5°C° 2.5 mm 5 mps 728 mmHg 90%
    05:00 +5°C° 2.5 mm 4 mps 727 mmHg 90%
    06:00 +5°C° 0.2 mm 4 mps 727 mmHg 89%
    07:00 +5°C° 0.2 mm 4 mps 727 mmHg 88%
    08:00 +5°C° 0.2 mm 3 mps 727 mmHg 87%
    09:00 +5°C° 0.1 mm 3 mps 728 mmHg 85%
    10:00 +5°C° 0.1 mm 3 mps 728 mmHg 83%
    11:00 +5°C° 0.1 mm 3 mps 729 mmHg 82%
    12:00 +7°C° 0 mm 3 mps 729 mmHg 79%
    13:00 +7°C° 0 mm 3 mps 730 mmHg 76%
    14:00 +7°C° 0 mm 3 mps 730 mmHg 74%
    15:00 +5°C° 0 mm 3 mps 731 mmHg 76%
    16:00 +5°C° 0 mm 3 mps 731 mmHg 78%
    17:00 +4°C° 0 mm 3 mps 732 mmHg 80%
    18:00 +4°C° 0 mm 2 mps 733 mmHg 81%
    19:00 +4°C° 0 mm 2 mps 733 mmHg 82%
    20:00 +3°C° 0 mm 2 mps 734 mmHg 84%
    21:00 +3°C° 0 mm 2 mps 734 mmHg 85%
    22:00 +4°C° 0 mm 1 mps 735 mmHg 86%
    23:00 +3°C° 0 mm 1 mps 735 mmHg 87%

    Pasado mañana, 20 Noviembre, Martes

    Tiempo Temperatura Precipitaciones Viento Presión Humedad
    00:00 +3°C° 0 mm 1 mps 735 mmHg 87%
    01:00 +3°C° 0 mm 1 mps 735 mmHg 87%
    02:00 +3°C° 0 mm 1 mps 736 mmHg 87%
    03:00 +3°C° 0 mm 1 mps 736 mmHg 87%
    04:00 +2°C° 0 mm 2 mps 736 mmHg 87%
    05:00 +2°C° 0 mm 2 mps 736 mmHg 87%
    06:00 +2°C° 0 mm 2 mps 736 mmHg 87%
    07:00 +2°C° 0 mm 2 mps 736 mmHg 86%
    08:00 +2°C° 0 mm 2 mps 736 mmHg 85%
    09:00 +3°C° 0 mm 2 mps 736 mmHg 82%
    10:00 +3°C° 0 mm 3 mps 736 mmHg 79%
    11:00 +4°C° 0 mm 3 mps 737 mmHg 76%
    12:00 +5°C° 0.1 mm 3 mps 736 mmHg 77%
    13:00 +5°C° 0.1 mm 3 mps 736 mmHg 79%
    14:00 +7°C° 0.1 mm 3 mps 735 mmHg 81%
    15:00 +7°C° 0.1 mm 3 mps 735 mmHg 84%
    16:00 +7°C° 0.1 mm 3 mps 735 mmHg 87%
    17:00 +6°C° 0.1 mm 2 mps 734 mmHg 90%
    18:00 +7°C° 0.2 mm 2 mps 734 mmHg 91%
    19:00 +7°C° 0.2 mm 2 mps 734 mmHg 92%
    20:00 +7°C° 0.2 mm 2 mps 734 mmHg 93%
    21:00 +8°C° 0.4 mm 2 mps 733 mmHg 94%
    22:00 +8°C° 0.4 mm 2 mps 733 mmHg 94%
    23:00 +8°C° 0.4 mm 2 mps 733 mmHg 95%

    21 Noviembre, Miércoles

    Tiempo Temperatura Precipitaciones Viento Presión Humedad
    00:00 +8°C° 0.3 mm 2 mps 732 mmHg 95%
    01:00 +9°C° 0.3 mm 2 mps 732 mmHg 96%
    02:00 +9°C° 0.3 mm 2 mps 731 mmHg 96%
    03:00 +9°C° 0.4 mm 2 mps 731 mmHg 96%
    04:00 +9°C° 0.4 mm 2 mps 730 mmHg 96%
    05:00 +10°C° 0.4 mm 2 mps 730 mmHg 96%
    06:00 +10°C° 0.7 mm 2 mps 729 mmHg 96%
    07:00 +10°C° 0.7 mm 3 mps 729 mmHg 96%
    08:00 +11°C° 0.7 mm 3 mps 728 mmHg 96%
    09:00 +11°C° 1.3 mm 3 mps 728 mmHg 95%
    10:00 +11°C° 1.3 mm 3 mps 728 mmHg 94%
    11:00 +12°C° 1.3 mm 4 mps 727 mmHg 94%
    12:00 +12°C° 0.6 mm 3 mps 727 mmHg 91%
    13:00 +13°C° 0.6 mm 3 mps 727 mmHg 88%
    14:00 +14°C° 0.6 mm 2 mps 727 mmHg 86%
    15:00 +12°C° 0.4 mm 3 mps 727 mmHg 86%
    16:00 +11°C° 0.4 mm 3 mps 727 mmHg 87%
    17:00 +10°C° 0.4 mm 3 mps 727 mmHg 87%
    18:00 +8°C° 0.1 mm 4 mps 727 mmHg 85%
    19:00 +8°C° 0.1 mm 4 mps 728 mmHg 84%
    20:00 +7°C° 0.1 mm 4 mps 728 mmHg 82%
    21:00 +7°C° 0 mm 4 mps 729 mmHg 82%
    22:00 +7°C° 0 mm 4 mps 729 mmHg 82%
    23:00 +6°C° 0 mm 4 mps 730 mmHg 82%

    22 Noviembre, Jueves

    Tiempo Temperatura Precipitaciones Viento Presión Humedad
    00:00 +6°C° 0 mm 4 mps 730 mmHg 83%
    01:00 +6°C° 0 mm 4 mps 731 mmHg 83%
    02:00 +6°C° 0 mm 4 mps 731 mmHg 84%
    03:00 +6°C° 0 mm 4 mps 731 mmHg 84%
    04:00 +6°C° 0 mm 4 mps 732 mmHg 84%
    05:00 +5°C° 0 mm 4 mps 732 mmHg 84%
    06:00 +5°C° 0.1 mm 4 mps 733 mmHg 84%
    07:00 +5°C° 0.1 mm 4 mps 733 mmHg 84%
    08:00 +4°C° 0.1 mm 3 mps 734 mmHg 84%
    09:00 +5°C° 0.1 mm 3 mps 735 mmHg 82%
    10:00 +5°C° 0.1 mm 3 mps 735 mmHg 81%
    11:00 +5°C° 0.1 mm 3 mps 736 mmHg 80%
    12:00 +5°C° 0 mm 3 mps 736 mmHg 79%
    13:00 +5°C° 0 mm 3 mps 736 mmHg 78%
    14:00 +7°C° 0 mm 3 mps 736 mmHg 77%
    15:00 +6°C° 0 mm 2 mps 736 mmHg 79%
    16:00 +6°C° 0 mm 2 mps 737 mmHg 81%
    17:00 +6°C° 0 mm 2 mps 737 mmHg 82%
    18:00 +5°C° 0 mm 2 mps 737 mmHg 84%
    19:00 +5°C° 0 mm 2 mps 738 mmHg 85%
    20:00 +5°C° 0 mm 1 mps 738 mmHg 87%
    21:00 +5°C° 0 mm 1 mps 738 mmHg 87%
    22:00 +5°C° 0 mm 1 mps 739 mmHg 88%
    23:00 +4°C° 0 mm 1 mps 739 mmHg 88%

    23 Noviembre, Viernes

    Tiempo Temperatura Precipitaciones Viento Presión Humedad
    00:00 +4°C° 0 mm 1 mps 739 mmHg 88%
    01:00 +4°C° 0 mm 1 mps 739 mmHg 88%
    02:00 +4°C° 0 mm 1 mps 739 mmHg 88%
    03:00 +4°C° 0 mm 1 mps 739 mmHg 88%
    04:00 +4°C° 0 mm 1 mps 739 mmHg 88%
    05:00 +4°C° 0 mm 1 mps 739 mmHg 88%
    06:00 +4°C° 0 mm 1 mps 740 mmHg 88%
    07:00 +4°C° 0 mm 1 mps 740 mmHg 87%
    08:00 +4°C° 0 mm 1 mps 740 mmHg 87%
    09:00 +5°C° 0 mm 1 mps 741 mmHg 81%
    10:00 +6°C° 0 mm 1 mps 741 mmHg 75%
    11:00 +8°C° 0 mm 1 mps 741 mmHg 69%
    12:00 +8°C° 0 mm 1 mps 741 mmHg 67%
    13:00 +8°C° 0 mm 2 mps 741 mmHg 65%
    14:00 +8°C° 0 mm 2 mps 741 mmHg 63%
    15:00 +7°C° 0 mm 2 mps 741 mmHg 67%
    16:00 +7°C° 0 mm 2 mps 741 mmHg 72%
    17:00 +7°C° 0 mm 1 mps 741 mmHg 76%
    18:00 +6°C° 0 mm 1 mps 741 mmHg 78%
    19:00 +6°C° 0 mm 1 mps 741 mmHg 80%
    20:00 +5°C° 0 mm 1 mps 741 mmHg 82%
    21:00 +5°C° 0 mm 1 mps 741 mmHg 83%
    22:00 +4°C° 0 mm 1 mps 741 mmHg 83%
    23:00 +4°C° 0 mm 1 mps 741 mmHg 84%
    Mostrar más